Location: Brookview
(43.0867°N, 73.7044°W)
Time: 15:09:05
(UTC+00:00)

Daily predictions for brighter satellites

Satellite Brightness Start Highest point End
(mag) Time Altitude Azimuth Time Altitude Azimuth Time Altitude Azimuth
Meteor 1-25 Rocket 4.2 21:41:50 10° N 21:47:25 74° ENE 21:53:03 10° SSE
Cosmos 540 Rocket 3.5 21:45:15 10° SSW 21:50:20 85° ESE 21:55:29 10° NNE
NOAA 6 4.3 21:46:38 10° SE 21:51:30 46° ENE 21:56:23 10° N
USA 234 3.7 21:45:36 10° E 21:51:41 43° NNE 21:57:48 10° NW
CZ-2C R/B 3.9 21:51:29 10° NE 21:55:03 18° E 21:58:34 10° SE
Cosmos 1743 Rocket 3.8 21:50:59 10° NNW 21:55:18 76° W 21:59:37 10° S
Cosmos 1782 3.0 21:51:25 10° S 21:55:19 53° E 21:59:12 10° NNE
COSMOS 2406 3.5 21:51:23 10° SSW 21:57:07 76° WNW 22:02:53 10° NNE
NOSS 2-2 (D) 4.4 21:56:14 10° NNW 22:01:34 72° NE 22:09:05 10° SE
SL-24 R/B - RUBIN 2 3.5 21:58:44 10° NNW 22:03:13 73° NE 22:07:30 10° SE
CZ-4C R/B 3.1 21:58:28 10° NNW 22:05:37 59° NE 22:13:56 10° SE
Cosmos 2279 Rocket 4.3 21:59:58 10° SSE 22:05:46 43° E 22:11:34 10° NNE
Cosmos 1666 Rocket 4.1 22:02:26 10° N 22:06:34 37° ENE 22:10:38 10° SE
Cosmos 1666 3.4 22:03:35 10° NNE 22:06:54 30° ENE 22:10:12 10° SE
Cosmos 1627 Rocket 4.4 22:00:45 10° N 22:06:55 75° E 22:13:00 10° SSE
USA 307 4.4 22:04:57 10° NW 22:08:13 21° N 22:11:04 12° ENE
Okean O Rocket 2.9 22:07:46 10° ESE 22:10:54 19° ENE 22:14:03 10° NNE
CZ-4B R/B 3.9 22:07:13 10° ESE 22:11:49 30° ENE 22:16:22 10° N
SMAP 3.0 22:07:29 10° SSE 22:12:06 71° ENE 22:16:45 10° N
Meteor 2-14 Rocket 4.4 22:06:20 10° N 22:12:28 75° E 22:18:31 10° SSE
Lacrosse 5 rocket 2.0 22:14:02 10° NNW 22:17:35 32° NE 22:20:52 12° E
Cosmos 1814 Rocket 4.0 22:13:31 10° S 22:18:42 71° ESE 22:23:52 10° NNE
PAYLOAD B 4.4 22:17:44 10° SE 22:23:10 53° ENE 22:28:36 10° N
Cosmos 1570 Rocket 4.0 22:18:07 10° S 22:23:18 67° ESE 22:28:30 10° NNE
Sich 1 3.2 22:20:02 10° NNW 22:24:20 75° W 22:28:39 10° S
SKYMED 2 4.4 22:21:14 10° NE 22:25:03 29° E 22:28:50 10° SSE
CZ-2C R/B 3.2 22:22:29 10° SW 22:25:51 22° SSE 22:29:07 10° ESE
Cosmos 1634 Rocket 4.1 22:20:41 10° S 22:27:01 83° W 22:33:23 10° N
Cosmos 2360 Rocket 3.6 22:23:45 10° N 22:27:12 16° NE 22:28:09 15° ENE
MOS 1-B Rocket 4.3 22:21:55 10° NNE 22:27:56 55° ESE 22:34:51 10° S
Cosmos 2026 Rocket 4.1 22:22:47 10° N 22:28:55 77° W 22:34:57 10° S
USA 308 4.2 22:27:36 10° NW 22:31:04 23° NNE 22:32:48 18° NE
PSLV R/B 3.6 22:27:44 10° SSE 22:31:22 65° ENE 22:35:06 10° N
ISS -3.2 22:28:33 10° WNW 22:31:55 60° SW 22:35:14 10° SE
Cosmos 44 Rocket 3.5 22:27:36 10° NNW 22:32:22 48° NE 22:36:58 10° SE
deb Chang Zheng 4 4.1 22:29:17 10° SE 22:33:09 34° ENE 22:37:04 10° N
Cosmos 1812 2.7 22:31:47 10° S 22:35:38 86° W 22:39:30 10° N
Meteor 2-21 Rocket 4.4 22:33:53 10° N 22:40:00 90° WSW 22:46:03 10° S
Aureole 3 Rocket 4.4 22:39:56 10° SE 22:43:40 26° E 22:47:35 13° NNE
Cosmos 1544 3.7 22:42:27 10° NNE 22:45:44 32° ENE 22:49:00 10° SE
Cosmos 1818 3.5 22:40:40 10° NNW 22:46:09 65° NE 22:51:32 10° SE
Cosmos 2322 Rocket 2.8 22:44:46 10° N 22:49:55 34° NE 22:52:57 21° ESE
Cosmos 1515 Rocket 3.8 22:47:23 10° SSE 22:51:36 45° E 22:54:13 21° NNE
Meteor 1-10 Rocket 4.3 22:47:17 10° S 22:52:55 59° E 22:58:28 10° NNE
Cosmos 1980 Rocket 3.1 22:48:15 10° NW 22:53:43 51° WSW 22:59:07 10° S
Meteor 1-11 Rocket 3.9 22:50:28 10° N 22:55:54 46° ENE 23:01:25 10° SSE
USA 305 3.8 22:52:19 10° NW 22:56:07 30° NNE 22:56:42 29° NE
Cosmos 1356 Rocket 3.8 22:53:03 10° N 22:57:01 39° ENE 23:01:01 10° SE
Cosmos 921 Rocket 2.8 22:53:57 10° SSW 22:58:08 80° ESE 23:00:52 22° NNE
APEX 2.9 22:54:35 10° SSW 22:58:28 64° ESE 22:59:13 47° ENE
SJ-11-01 4.3 22:54:44 10° SSE 22:59:23 60° ENE 23:04:04 10° N
Cosmos 2208 Rocket 4.3 22:56:13 10° SSW 23:01:36 72° WNW 23:06:56 11° NNE
USA 267 3.7 22:56:58 18° NE 23:01:48 55° NNW 23:08:08 10° WSW
Cosmos 2180 Rocket 4.5 22:55:28 10° S 23:01:48 89° E 23:08:06 10° N
Cosmos 1655 Rocket 4.0 22:57:59 10° N 23:04:22 66° E 23:10:39 10° SSE
Tiangong 3.4 23:02:38 10° S 23:04:10 15° SSE 23:04:10 15° SSE
COSMOS 2455 4.2 22:59:10 10° WSW 23:04:38 35° NW 23:10:07 10° NNE
DEBRIS 3.5 23:03:32 10° SSW 23:05:53 34° SE 23:05:58 34° SE
Cosmos 2150 Rocket 3.9 23:01:41 10° NNW 23:06:53 68° ENE 23:12:05 10° SSE
CZ-4 R/B 4.3 23:03:32 10° SSE 23:07:37 65° ENE 23:11:44 10° N
YAOGAN 3 4.4 23:03:24 10° SSE 23:07:43 70° ENE 23:12:04 10° N
Cosmos 1867 3.8 23:03:56 10° S 23:09:09 49° ESE 23:10:44 37° ENE
SL-16 R/B 2.1 23:04:28 10° NNW 23:10:07 61° ENE 23:15:43 10° SE
H-2A R/B 2.4 23:05:29 10° S 23:10:35 64° WSW 23:15:36 10° NNW
Cosmos 2082 Rocket 3.6 23:05:39 10° WSW 23:10:46 34° NW 23:15:55 10° N
ARGOS 3.0 23:07:18 10° SSE 23:12:42 80° ENE 23:18:08 10° N
COSMO-SKYMED 1 2.5 23:09:47 16° N 23:13:14 84° WNW 23:17:34 10° SSW
Feng Yun 1-1 Rocket 4.4 23:09:26 10° SE 23:15:11 56° ENE 23:20:53 10° N
Cosmos 1125 Rocket 3.4 23:10:08 10° NNW 23:15:24 74° ENE 23:20:40 10° SSE
Cosmos 1633 Rocket 4.1 23:11:20 10° NNW 23:15:33 46° W 23:19:45 10° SSW
USA 32 4.0 23:11:34 10° SSE 23:16:41 58° E 23:19:45 24° NNE
Landsat 5 3.2 23:23:02 57° NNE 23:23:50 88° ESE 23:27:45 10° SSW
X-37B 1.9 23:21:13 10° WSW 23:23:02 34° SW 23:23:02 34° SW
SL-08 RB Rocket 3.6 23:19:42 10° SSE 23:24:18 73° ENE 23:28:54 10° N
Cosmos 2333 Rocket 3.9 23:23:30 10° N 23:25:38 18° NNE 23:25:38 18° NNE
USA 306 3.7 23:24:30 10° NW 23:27:42 37° N 23:27:42 37° N
USA 234 3.4 23:28:31 13° SE 23:34:27 72° SW 23:41:00 10° NW
CZ-2C R/B 3.1 23:30:38 10° N 23:35:42 55° WNW 23:40:44 10° SSW
ATLAS 2AS CENTAUR R/B 4.3 23:31:57 10° NNW 23:36:52 18° NNE 23:36:57 18° NNE
Cosmos 2219 Rocket 4.2 23:34:48 10° N 23:35:57 14° N 23:35:57 14° N
Cosmos 1933 Rocket 3.7 23:37:43 10° NNW 23:42:03 69° W 23:46:20 10° S
NOSS 3-3 (A) 3.7 23:37:35 10° SSW 23:43:07 66° ESE 23:43:32 64° E
NOSS 3-3 (C) 3.7 23:37:41 10° SSW 23:43:14 66° ESE 23:43:37 64° E
Okean O Rocket 2.7 23:42:39 10° S 23:46:55 45° W 23:51:13 10° NNW
USA 307 4.3 23:44:41 10° NW 23:47:06 30° NNW 23:47:06 30° NNW
DMSP 5D-2 F-14 4.5 23:43:52 10° SSE 23:49:18 82° ENE 23:54:46 10° NNW
CZ-4B R/B 4.5 23:47:13 10° SSW 23:52:14 38° W 23:57:12 10° NNW
ATLAS 5 CENTAUR R/B 3.5 23:52:17 10° NW 23:54:52 26° NW 23:54:52 26° NW
